Hauptseite
METAR-TAF:

METAR-TAF

Flughäfen :

Flughafen Metz-Nancy-Lothringen

Metz-Nancy-Lorraine, Frankreich

Breite: 48-59N, Länge: 006-15E, Höhe: 264 m

Beobachtung

Neuester Wetterbericht von vor 14 Minuten, um 10:00 UTC
Wind 4 kt aus unterschiedlichen Richtungen
Temperatur 22°C
Luftfeuchtigkeit 46%
Luftdruck 1023 hPa
Sichtweite 10 km oder mehr
keine Wolken unter 1500 m und keine Kumulonimbus oder Gewitterwolken

METAR: LFJL 181000Z AUTO VRB04KT CAVOK 22/10 Q1023 NOSIG

Zeit: 12:14 (10:14 UTC)

Prognose

Neuester Wetterbericht von vor 5 Stunden und 14 Minuten, um 05:00 UTC
Gültige Prognose vom 18 um 06 UTC bis 19 um 06 UTC
Wind 6 kt aus Nord
Sichtweite 10 km oder mehr
keine Wolken unter 1500 m und keine Kumulonimbus oder Gewitterwolken

TAF: LFJL 180500Z 1806/1906 35006KT CAVOK

Wetterbeobachtungen und Prognosen von mehr als 4000 Flughäfen (METAR und TAF Bericht).

Die verfügbaren Stationen werden durch gelbe und rote Markierungen auf der Karte dargestellt.

Führen Sie die Maus auf sie, um den Namen der Station zu sehen.

Darauf klicken, um die Beobachtung von Wetterbeobachtungen und Prognosen zu sehen.

Um die Karte zu ändern : klicken Sie auf den grünen Tasten mit einem schwarzen Kreuz Zum Vergrößern, auf den grünen Button mit einem Gedankenstrich zu verkleinern, oder auf die grünen Pfeile für benachbarte Karten.


METAR-TAF: